Location: Asis
(14.1331°N, 120.9056°E)
Time: 09:23:54
(UTC+00:00)

IRS-1C - Pass Details

Date: 15 January 2026
Orbit: 813 x 814 km, 99.0° (Epoch: 8 February)

Event Time Altitude Azimuth Distance (km) Brightness Sun altitude
Rises 10:01:52 0° 166° (SSE) 3,326 7.4 -4.1°
Reaches altitude 10° 10:04:12 10° 166° (SSE) 2,395 6.7 -4.7°
Maximum altitude 10:09:30 89° 74° (ENE) 816 4.2 -5.9°
Drops below altitude 10° 10:14:49 10° 348° (NNW) 2,396 6.5 -7.1°
Sets 10:17:09 0° 348° (NNW) 3,328 7.2 -7.6°
